COSMOS 2500 (755)

Last updated on Nov. 12, 2019, 4:19 a.m. UTC

1 40001U 14032A   19315.53643414 -.00000057  00000-0  00000+0 0  9996
2 40001  65.6270  34.8970 0008103 202.0862 263.6000  2.13102470 42100
UTC
Height (km)
Latitude
Longitude
Inclination
Orbital Period
UTC large
Height (km)
Speed (km/s)
/
Latitude / Longitude
Inclination (degrees)
Orbital Period (minutes)
Azimuth
Elevation
Range (km)
Doppler Factor
iOS Compass Heading
iOS Angle

Next 30 passes for location: Hong Kong

Rise time Rise Azimuth (degrees) Set time Set Azimuth (degrees) Duration Max altitude (degrees)

No matching passes for this satellites